This is the latest recevied weather packets stored in our database for station/object IW1CBG-3. If no packets are shown the sender has not sent any weather packets the latest 10 day(s).
| Time | Temp. | Humidity | Pressure | Rain* | Wind** | Luminosity | Snow |
|---|---|---|---|---|---|---|---|
| 1777076431 | 6.11° C | 93% | 1030.2 hPa | 0 mm | - | - | - |
| 1777075831 | 6.67° C | 93% | 1030.3 hPa | 0 mm | - | - | - |
| 1777075230 | 6.11° C | 94% | 1030.3 hPa | 0 mm | - | - | - |
| 1777074630 | 6.67° C | 95% | 1030.2 hPa | 0 mm | - | - | - |
| 1777074030 | 6.67° C | 95% | 1030.5 hPa | 0 mm | - | - | - |
| 1777073430 | 6.67° C | 95% | 1030.6 hPa | 0 mm | - | - | - |
| 1777072830 | 6.67° C | 96% | 1030.5 hPa | 0 mm | - | - | - |
| 1777072230 | 6.67° C | 95% | 1030.5 hPa | 0 mm | - | - | - |
| 1777071631 | 6.67° C | 96% | 1030.6 hPa | 0 mm | - | - | - |
| 1777071030 | 7.22° C | 96% | 1030.4 hPa | 0 mm | - | - | - |
| 1777070431 | 7.22° C | 96% | 1030.4 hPa | 0 mm | - | - | - |
| 1777069830 | 7.22° C | 96% | 1030.2 hPa | 0 mm | - | - | - |
| 1777069230 | 7.22° C | 96% | 1030.2 hPa | 0 mm | - | - | - |
| 1777068630 | 7.22° C | 96% | 1030.1 hPa | 0 mm | - | - | - |
| 1777068030 | 7.22° C | 96% | 1030.2 hPa | 0 mm | - | - | - |
| 1777067431 | 7.78° C | 97% | 1030.3 hPa | 0 mm | - | - | - |
| 1777066830 | 7.78° C | 97% | 1030.2 hPa | 0 mm | - | - | - |
| 1777066231 | 7.78° C | 97% | 1030.1 hPa | 0 mm | - | - | - |
| 1777065630 | 7.78° C | 97% | 1030.1 hPa | 0 mm | - | - | - |
| 1777065031 | 8.33° C | 96% | 1030 hPa | 0 mm | - | - | - |
| 1777064430 | 8.33° C | 96% | 1029.9 hPa | 0 mm | - | - | - |
| 1777063831 | 8.33° C | 96% | 1029.9 hPa | 0 mm | - | - | - |
| 1777063230 | 8.89° C | 96% | 1029.4 hPa | 0 mm | - | - | - |
| 1777062630 | 8.89° C | 96% | 1029.2 hPa | 0 mm | - | - | - |
| 1777062030 | 9.44° C | 96% | 1029 hPa | 0 mm | - | - | - |
* Rain latest hour (hover to see other rain measurements)
** Current wind speed in m/s (hover to see current wind gust speed)